Location: Maiden
(35.5760°N, 81.2120°W)
Time: 20:45:26
(UTC-04:00)

Cosmos 1244 Rocket - Pass Details

Date: 14 June 2018
Orbit: 955 x 997 km, 82.9° (Epoch: 24 June)

Event Time Altitude Azimuth Distance (km) Brightness Sun altitude
Rises 23:10:44 0° 355° (N) 3,720 8.5 -23.1°
Reaches altitude 10° 23:13:16 10° 357° (N) 2,769 7.7 -23.3°
Maximum altitude 23:19:39 77° 83° (E) 1,026 4.5 -24.0°
Enters shadow 23:21:16 52° 155° (SSE) 1,217 4.6 -24.2°
